National Oceanic Atmosphere Administration National Weather Service Headquarters National Weather Service Headquarters
NOAA logo WFO Anchorage Scalable transition graphic NWS logo
Transition from title bar to navgation bar   Aviation Weather 20 AKST 
blankspace Home   |   Mobile   |   Social Media   |   Mesonet   |   Surface Map   |   Radar   |   Submit Storm Reports   |   News =05 GMT 

LocalForecast by City, St or Zip Code

spacer

Forecasts/Products
  Public
  Forecast Discussion
    - With Glossary
  Aviation
  Marine
  Hydrology(RFC)
  Rivers & Lakes AHPS
  Ice Desk
  TV Weather
  Fire Weather
  Avalanche
  Travel 511
  Graphical
  xml logo RSS Feeds
  Marine FTPMail

spacer

Data
  Mesonet
  Model Graphics
  Local Model
  Observations
  Marine Obs
  Satellite/Radar
  Vent Factor
  Soaring Index
  Weather Links

spacer

Climate
  PAFC Climate
  Interactive Climate
  PAFC Records
  Local
  National
  More

spacer

Outreach
  About Us
  Community Outreach
  Kids' Page
  Tour/Speaker Request
  Weather Classroom
  Social Media

spacer

Reports
  COOP Observers
  Local Storm Reports
  Spotter Page
  Submit a Storm Report

spacer

Miscellaneous
  Archived Alaska Weather Stories
  Student Career Opportunities
  Research Papers

spacer

Print Friendly/
Low Bandwidth

  Public Forecasts
  Marine Forecasts

spacer

Contact Us
  mailto pafcweb

spacer

Facebook Follow the National Weather Service in Alaska on Twitter
USA.gov is the U.S. government's official web portal to all federal, state and local government web resources and services.


 ICAO ID:   AAWU Graphics

Internet access to TAFs and METAR observations is for planning purposes only. We can not guarantee the timeliness of internet products. Before flying please get a formal pilot briefing (1-800-992-7433) and ALWAYS file a Flight Plan!Pilot briefings are provided to licensed aircraft pilots, ONLY! Others may not use the above number to obtain weather information.

Check out the Key to TAFs and METARs for help with decoding the information.

A 12 hour summary of TAFs can be found here.

PABI TAF
PABI 0704/ VRB06KT 9999 SCT080 BKN100 OVC150 QNH2975INS

 
      BECMG 0605/0606 VRB06KT 4800 -SN BKN040 OVC080 620409
      QNH2985INS
      TEMPO 0608/0615 1800 -SN BKN010 OVC020 620109
      BECMG 0618/0619 29009KT 9999 NSW SCT040 BKN060 BKN100 610609
      QNH2995INS
      BECMG 0701/0702 29010G15KT 9999 SCT030 BKN040 BKN080 610409
      QNH2975INS TX01/0600Z TNM07/0616Z=


METAR PABI 060453Z 24005KT 10SM FEW040 SCT110 BKN180 M02/M07 A2985 RMK
     AO2 SLP136 T10171072=
METAR PABI 060453Z 24005KT 10SM FEW040 SCT110 BKN180 M02/M07 A2985=
METAR PABI 060353Z 00000KT 10SM FEW040 SCT120 BKN180 M01/M07 A2983 RMK
     AO2 SLP131 T10111072=
METAR PABI 060353Z 00000KT 10SM FEW040 SCT120 BKN180 M01/M07 A2983=
METAR PABI 060253Z 31005KT 10SM FEW040 SCT120 BKN180 00/M07 A2982 RMK
     AO2 SLP125 ACSL DSNT NW T00001072 53008=
METAR PABI 060253Z 31005KT 10SM FEW040 SCT120 BKN180 00/M07 A2982=
METAR PABI 060153Z 00000KT 10SM FEW040 SCT120 BKN180 02/M07 A2981 RMK
     AO2 SLP119 T00171072=
METAR PABI 060153Z 00000KT 10SM FEW040 SCT120 BKN180 02/M07 A2981=


National Weather Service
Anchorage Forecast Office
6930 Sand Lake Road
Anchorage, Ak 99502
(907) 266-5105 M-F/7-5pm
About Us
Career Opportunities
Glossary
Disclaimer
Privacy Policy
Credits
Alaska Weather Information Line:
1-800-472-0391